Weather observations for the past three days for
King Airport, St. Thomas
Imperial (Metric)
Date Time (ast) Wind (mph) Vis. (mi.) Weather Sky Cond. Temperature (ºF) Relative Humidity Wind Chill (°F) Heat Index (°F) Pressure Precipitation (in)
Air Dwpt 6 hour altimeter (in) sea level (mb) 1 hr 3 hr 6 hr
Max. Min.
07 15:53 SE 14 10.00 Partly Cloudy SCT030 84.2 73.4 70% 91 29.96 0.0
07 14:53 SE 14 10.00 Partly Cloudy SCT030 86 73.9 67% 94 29.97 1015.0
07 13:53 SE 15 10.00 Partly Cloudy SCT040 87.8 73.4 62% 96 29.99 0.0
07 12:53 SE 14 10.00 Partly Cloudy SCT038 87.8 73.4 62% 96 30.01 0.0
07 11:53 SE 15 10.00 Partly Cloudy SCT030 87.8 73.4 62% 96 30.03 0.0
07 10:53 SE 17 10.00 Partly Cloudy SCT030 86 73.4 66% 93 30.04 0.0
07 09:53 SE 16 10.00 Partly Cloudy SCT030 84.2 73.4 70% 91 30.04 0.0
07 07:53 E 8 10.00 Partly Cloudy SCT030 82.4 73.4 74% 88 30.02 0.0
07 06:53 E 10 10.00 Fair CLR 82 73 74% 87 30.01 1016.2
07 05:53 E 7 10.00 Fair CLR 80.6 73.4 79% 85 30 0.0
07 04:53 E 9 10.00 Fair CLR 80.1 73 79% 84 29.99 1015.7
07 03:53 E 8 10.00 Fair CLR 80.6 73.4 79% 85 29.99 0.0
07 02:53 E 10 10.00 Fair CLR 80.6 73.4 79% 85 30 0.0
07 01:53 E 10 10.00 Mostly Cloudy BKN090 80.6 71.6 74% 85 30.02 0.0
07 00:53 E 8 10.00 A Few Clouds FEW055 80.6 73.4 79% 85 30.05 0.0
06 23:53 E 7 10.00 Fair CLR 80.6 73.4 79% 85 30.06 0.0
06 22:53 E 9 10.00 Fair CLR 82 73.9 77% 88 30.07 1018.1
06 21:53 E 8 10.00 Fair CLR 82 73 74% 87 30.07 1018.2
06 20:53 E 8 10.00 Fair CLR 82.4 73.4 74% 88 30.05 0.0
06 19:53 E 12 10.00 A Few Clouds FEW023 82.4 73.4 74% 88 30.03 0.0
06 18:53 SE 12 10.00 Fair CLR 82.9 73 72% 89 30.01 1016.4
06 17:53 SE 12 10.00 Fair CLR 84.2 73.4 70% 91 30 0.0
06 16:53 SE 13 10.00 Fair CLR 86 73.9 67% 94 29.99 1015.7
06 15:53 SE 13 10.00 Fair CLR 87.8 73.4 62% 96 30 0.0
06 14:53 SE 13 10.00 A Few Clouds FEW030 89.6 73.4 59% 98 30 0.0
06 13:53 SE 14 10.00 A Few Clouds FEW030 87.8 73.4 62% 96 30.03 0.0
06 12:53 SE 13 10.00 A Few Clouds FEW030 87.8 73.4 62% 96 30.05 0.0
06 11:53 SE 13 10.00 Partly Cloudy SCT030 87.8 73.4 62% 96 30.07 0.0
06 10:53 SE 14 10.00 Partly Cloudy SCT030 87.8 73.4 62% 96 30.08 0.0
06 09:53 SE 14 10.00 Partly Cloudy SCT025 86 73.4 66% 93 30.08 0.0
06 08:53 SE 13 10.00 Partly Cloudy SCT022 86 73.4 66% 93 30.07 0.0
06 07:53 SE 13 10.00 Partly Cloudy SCT022 84.2 73.4 70% 91 30.06 0.0
06 06:53 E 9 10.00 Partly Cloudy SCT022 82.4 73.4 74% 88 30.05 0.0
06 04:53 E 7 10.00 A Few Clouds FEW029 80.6 73.4 79% 85 30.02 0.0
06 03:53 E 7 10.00 A Few Clouds FEW021 80.6 73.4 79% 85 30.02 0.0
06 01:53 E 9 10.00 Mostly Cloudy FEW020 BKN050 81 73 82.9 81 77% 86 30.03 1016.8
06 00:53 E 13 10.00 Partly Cloudy SCT050 82.4 73.4 74% 88 30.03 0.0
05 23:53 E 6 10.00 Partly Cloudy SCT050 80.6 73.4 79% 85 30.04 0.0
05 22:53 E 6 10.00 A Few Clouds FEW022 82 73.9 77% 88 30.05 1017.7
05 21:53 E 7 10.00 Fair CLR 82 73.9 77% 88 30.05 1017.6
05 20:53 SE 9 10.00 A Few Clouds FEW020 82.4 73.4 74% 88 30.04 0.0
05 19:53 SE 9 10.00 Overcast FEW023 OVC060 82.4 73.4 74% 88 30.04 0.0
05 18:53 SE 8 10.00 A Few Clouds FEW024 84 73 70% 90 30.02 1016.6
05 17:53 SE 13 10.00 A Few Clouds FEW020 84.2 73.4 70% 91 30 0.0
05 16:53 SE 10 10.00 Fair CLR 86 73.4 66% 93 30 0.0
05 15:53 SE 9 10.00 Partly Cloudy SCT030 86 73.4 66% 93 30 0.0
05 14:53 SE 14 10.00 Partly Cloudy SCT022 87.8 75.2 66% 98 30 0.0
05 13:53 SE 15 10.00 Partly Cloudy SCT030 87.8 75.2 66% 98 30.02 0.0
05 12:53 SE 15 10.00 Partly Cloudy SCT030 86 75.9 72% 96 30.03 1017.1
05 11:53 SE 15 10.00 Partly Cloudy SCT022 86 75.2 70% 95 30.05 0.0
05 10:53 SE 14 10.00 Mostly Cloudy BKN060 BKN070 86 75.2 70% 95 30.05 0.0
05 09:53 SE 13 G 23 10.00 Partly Cloudy SCT025 87.1 75.9 70% 98 30.04 1017.4
05 08:53 SE 15 G 24 10.00 Overcast SCT020 OVC060 84.2 75.2 74% 92 30.04 0.0
05 07:53 SE 13 10.00 Mostly Cloudy SCT020 BKN060 84.2 75.2 74% 92 30.03 0.0
05 06:53 SE 12 10.00 Partly Cloudy SCT020 SCT025 SCT055 82.9 75 77% 90 30 1016.0
05 05:53 NE 6 10.00 Partly Cloudy SCT018 80.1 75 85% 85 30 1015.8
05 04:53 E 8 10.00 Overcast SCT018 BKN023 OVC055 81 77 88% 88 29.98 1015.3
05 03:53 SE 6 10.00 Mostly Cloudy FEW016 SCT023 BKN055 80.6 75.2 84% 86 29.97 0.0
05 02:53 E 6 10.00 A Few Clouds FEW018 80.6 73.4 79% 85 29.97 0.0
05 01:53 E 6 10.00 Fair CLR 80.6 75.2 84% 86 29.99 0.0
05 00:53 E 8 10.00 Fair CLR 81 73.9 79% 86 30 1015.8
04 23:53 E 7 10.00 Fair CLR 80.6 73.4 79% 85 30.02 0.0
04 22:53 E 8 10.00 A Few Clouds FEW021 82 75 79% 89 30.02 1016.7
04 21:53 E 7 10.00 A Few Clouds FEW020 FEW026 82.4 75.2 79% 89 30.02 0.0
04 20:53 E 9 10.00 Fair CLR 82.4 73.4 74% 88 30 0.0
04 19:53 E 10 10.00 Fair CLR 82.4 73.4 74% 88 29.99 0.0
04 17:53 SE 13 10.00 Mostly Cloudy SCT036 BKN060 84 73.9 72% 91 29.96 1014.7
04 16:53 SE 13 10.00 Partly Cloudy SCT030 86 73.4 66% 93 29.95 0.0
Date Time (ast) Wind (mph) Vis. (mi.) Weather Sky Cond. Air Dwpt Max. Min. Relative Humidity Wind Chill (°F) Heat Index (°F) altimeter (in) sea level (mb) 1 hr 3 hr 6 hr
6 hour
Temperature (ºF) Pressure Precipitation (in)